| time (UTC) | temp C | wind direction | speed KPH | gust KPH | rain 1hr cm | rain 24hr cm | rain mn cm | humidity % | barometer mb |
| 20260905214204 | 15 | 152 | 9.7 | 22.5 | 0.00 | 0.05 | 0.05 | 91 | 1015.8 |
| 20260905213705 | 15 | 158 | 8.0 | 16.1 | 0.00 | 0.05 | 0.05 | 91 | 1016.0 |
| 20260905213204 | 15 | 172 | 9.7 | 20.9 | 0.00 | 0.05 | 0.05 | 91 | 1016.0 |
| 20260905212204 | 15 | 176 | 22.5 | 33.8 | 0.00 | 0.05 | 0.05 | 91 | 1016.0 |
| 20260905211704 | 15 | 173 | 17.7 | 27.4 | 0.00 | 0.05 | 0.05 | 91 | 1016.1 |
| 20260905211204 | 15 | 157 | 16.1 | 33.8 | 0.00 | 0.05 | 0.05 | 91 | 1016.1 |
| 20260905210704 | 15 | 176 | 11.3 | 20.9 | 0.00 | 0.05 | 0.05 | 91 | 1016.5 |
| 20260905210204 | 14 | 178 | 14.5 | 22.5 | 0.00 | 0.05 | 0.05 | 91 | 1016.5 |
| 20260905205704 | 14 | 160 | 16.1 | 27.4 | 0.00 | 0.05 | 0.05 | 91 | 1016.6 |
| 20260905205204 | 14 | 165 | 14.5 | 25.7 | 0.00 | 0.05 | 0.05 | 91 | 1016.5 |
| 20260905204703 | 14 | 168 | 16.1 | 25.7 | 0.00 | 0.05 | 0.05 | 90 | 1016.7 |
| 20260905204203 | 14 | 157 | 14.5 | 32.2 | 0.00 | 0.05 | 0.05 | 90 | 1016.6 |
| 20260905203704 | 14 | 186 | 14.5 | 29.0 | 0.00 | 0.05 | 0.05 | 90 | 1016.8 |
| 20260905203204 | 15 | 156 | 19.3 | 32.2 | 0.00 | 0.05 | 0.05 | 89 | 1016.8 |
| 20260905202704 | 15 | 169 | 14.5 | 29.0 | 0.00 | 0.05 | 0.05 | 89 | 1017.0 |
| 20260905202205 | 15 | 177 | 17.7 | 27.4 | 0.00 | 0.05 | 0.05 | 88 | 1017.1 |
| 20260905201204 | 15 | 154 | 17.7 | 33.8 | 0.00 | 0.05 | 0.05 | 88 | 1017.0 |
| 20260905200704 | 15 | 169 | 14.5 | 35.4 | 0.00 | 0.05 | 0.05 | 88 | 1017.0 |
| 20260905200204 | 15 | 169 | 12.9 | 25.7 | 0.00 | 0.05 | 0.05 | 87 | 1017.0 |
| 20260905195704 | 15 | 166 | 14.5 | 29.0 | 0.00 | 0.05 | 0.05 | 87 | 1017.0 |
| 20260905195203 | 15 | 178 | 16.1 | 32.2 | 0.00 | 0.05 | 0.05 | 86 | 1017.1 |
| 20260905194704 | 15 | 180 | 12.9 | 32.2 | 0.00 | 0.05 | 0.05 | 86 | 1017.1 |
| 20260905194203 | 15 | 176 | 17.7 | 35.4 | 0.00 | 0.05 | 0.05 | 85 | 1017.1 |
| 20260905193705 | 15 | 165 | 14.5 | 27.4 | 0.00 | 0.05 | 0.05 | 84 | 1017.2 |
| 20260905193203 | 15 | 176 | 14.5 | 33.8 | 0.00 | 0.05 | 0.05 | 84 | 1017.2 |
| 20260905192203 | 15 | 175 | 11.3 | 25.7 | 0.00 | 0.05 | 0.05 | 83 | 1017.2 |
| 20260905191704 | 15 | 183 | 16.1 | 29.0 | 0.00 | 0.05 | 0.05 | 83 | 1017.2 |
| 20260905190704 | 15 | 176 | 14.5 | 32.2 | 0.00 | 0.05 | 0.05 | 81 | 1017.3 |
| 20260905190203 | 15 | 188 | 9.7 | 32.2 | 0.00 | 0.05 | 0.05 | 81 | 1017.3 |
| 20260905185704 | 15 | 184 | 14.5 | 24.1 | 0.00 | 0.05 | 0.05 | 80 | 1017.3 |
| 20260905184704 | 15 | 167 | 9.7 | 16.1 | 0.00 | 0.05 | 0.05 | 80 | 1017.4 |
| 20260905184204 | 15 | 193 | 6.4 | 11.3 | 0.00 | 0.05 | 0.05 | 79 | 1017.6 |
| 20260905183704 | 15 | 134 | 9.7 | 19.3 | 0.00 | 0.05 | 0.05 | 79 | 1017.7 |
| 20260905183204 | 15 | 177 | 8.0 | 14.5 | 0.00 | 0.05 | 0.05 | 79 | 1017.7 |
| 20260905182704 | 15 | 146 | 6.4 | 12.9 | 0.00 | 0.05 | 0.05 | 79 | 1017.6 |
| 20260905182204 | 15 | 174 | 6.4 | 19.3 | 0.00 | 0.05 | 0.05 | 79 | 1017.7 |
| 20260905181203 | 15 | 185 | 9.7 | 16.1 | 0.00 | 0.05 | 0.05 | 78 | 1017.8 |
| 20260905180204 | 15 | 167 | 9.7 | 20.9 | 0.00 | 0.05 | 0.05 | 78 | 1017.8 |
| 20260905175704 | 15 | 181 | 9.7 | 20.9 | 0.00 | 0.05 | 0.05 | 79 | 1017.9 |
| 20260905174704 | 15 | 164 | 11.3 | 19.3 | 0.00 | 0.05 | 0.05 | 79 | 1018.1 |
| 20260905174204 | 16 | 163 | 6.4 | 19.3 | 0.00 | 0.05 | 0.05 | 79 | 1018.1 |
| 20260905173703 | 16 | 176 | 9.7 | 12.9 | 0.00 | 0.05 | 0.05 | 79 | 1018.2 |
| 20260905173204 | 16 | 167 | 8.0 | 20.9 | 0.00 | 0.05 | 0.05 | 79 | 1018.3 |
| 20260905172704 | 16 | 186 | 8.0 | 16.1 | 0.00 | 0.05 | 0.05 | 80 | 1018.3 |
| 20260905172204 | 16 | 179 | 9.7 | 19.3 | 0.00 | 0.05 | 0.05 | 80 | 1018.4 |
| 20260905171703 | 16 | 179 | 9.7 | 19.3 | 0.00 | 0.05 | 0.05 | 80 | 1018.4 |
| 20260905171204 | 16 | 185 | 8.0 | 16.1 | 0.00 | 0.05 | 0.05 | 80 | 1018.5 |
| 20260905170704 | 16 | 187 | 6.4 | 12.9 | 0.00 | 0.05 | 0.05 | 80 | 1018.5 |
| 20260905170204 | 16 | 185 | 8.0 | 16.1 | 0.00 | 0.05 | 0.05 | 80 | 1018.5 |
| 20260905165704 | 16 | 188 | 9.7 | 14.5 | 0.00 | 0.05 | 0.05 | 80 | 1018.7 |
| 20260905165204 | 16 | 174 | 8.0 | 16.1 | 0.00 | 0.05 | 0.05 | 81 | 1018.8 |
| 20260905164703 | 16 | 161 | 11.3 | 19.3 | 0.00 | 0.05 | 0.05 | 81 | 1018.8 |
| 20260905163204 | 16 | 186 | 9.7 | 19.3 | 0.00 | 0.05 | 0.05 | 80 | 1019.1 |
| 20260905162704 | 16 | 187 | 11.3 | 22.5 | 0.00 | 0.05 | 0.05 | 79 | 1019.1 |
| 20260905162203 | 16 | 182 | 8.0 | 16.1 | 0.00 | 0.05 | 0.05 | 79 | 1019.1 |
| 20260905161705 | 16 | 177 | 8.0 | 16.1 | 0.00 | 0.05 | 0.05 | 79 | 1019.1 |
| 20260905161203 | 16 | 186 | 11.3 | 19.3 | 0.00 | 0.05 | 0.05 | 79 | 1019.2 |
| 20260905160704 | 16 | 179 | 11.3 | 19.3 | 0.00 | 0.05 | 0.05 | 79 | 1019.3 |
| 20260905160204 | 16 | 188 | 12.9 | 22.5 | 0.00 | 0.05 | 0.05 | 78 | 1019.3 |
| 20260905155703 | 16 | 206 | 11.3 | 19.3 | 0.00 | 0.05 | 0.05 | 79 | 1019.4 |
| 20260905155204 | 16 | 179 | 11.3 | 19.3 | 0.00 | 0.05 | 0.05 | 79 | 1019.5 |
| 20260905154703 | 16 | 184 | 11.3 | 24.1 | 0.00 | 0.05 | 0.05 | 79 | 1019.5 |
| 20260905154204 | 16 | 193 | 8.0 | 16.1 | 0.00 | 0.05 | 0.05 | 80 | 1019.5 |
| 20260905153703 | 16 | 176 | 9.7 | 16.1 | 0.00 | 0.05 | 0.05 | 80 | 1019.5 |
| 20260905153204 | 16 | 177 | 8.0 | 16.1 | 0.00 | 0.05 | 0.05 | 81 | 1019.6 |
| 20260905152203 | 15 | 170 | 8.0 | 19.3 | 0.00 | 0.10 | 0.05 | 80 | 1019.7 |
| 20260905150704 | 15 | 169 | 4.8 | 11.3 | 0.00 | 0.10 | 0.05 | 81 | 1020.0 |
| 20260905141704 | 16 | 210 | 4.8 | 8.0 | 0.00 | 0.10 | 0.05 | 80 | 1020.6 |
| 20260905141203 | 16 | 235 | 9.7 | 12.9 | 0.00 | 0.10 | 0.05 | 80 | 1020.7 |
| 20260905140704 | 16 | 200 | 11.3 | 16.1 | 0.00 | 0.10 | 0.05 | 79 | 1020.8 |
| 20260905140204 | 16 | 218 | 8.0 | 12.9 | 0.00 | 0.10 | 0.05 | 80 | 1020.8 |
| 20260905135704 | 16 | 227 | 6.4 | 12.9 | 0.00 | 0.10 | 0.05 | 80 | 1020.8 |
| 20260905135204 | 16 | 265 | 6.4 | 11.3 | 0.00 | 0.10 | 0.05 | 80 | 1020.8 |
| 20260905134704 | 16 | 214 | 4.8 | 11.3 | 0.00 | 0.10 | 0.05 | 80 | 1020.9 |
| 20260905134203 | 15 | 188 | 8.0 | 11.3 | 0.00 | 0.10 | 0.05 | 80 | 1020.9 |
| 20260905133204 | 15 | 236 | 4.8 | 8.0 | 0.00 | 0.10 | 0.05 | 81 | 1021.0 |
| 20260905132705 | 15 | 224 | 8.0 | 12.9 | 0.00 | 0.10 | 0.05 | 81 | 1021.1 |
| 20260905132204 | 15 | 228 | 8.0 | 12.9 | 0.00 | 0.10 | 0.05 | 82 | 1021.3 |
| 20260905130703 | 15 | 212 | 8.0 | 12.9 | 0.00 | 0.10 | 0.05 | 83 | 1021.2 |
| 20260905130203 | 15 | 184 | 4.8 | 12.9 | 0.00 | 0.10 | 0.05 | 83 | 1021.2 |
| 20260905125704 | 15 | 202 | 6.4 | 11.3 | 0.00 | 0.10 | 0.05 | 83 | 1021.2 |
| 20260905124704 | 15 | 199 | 9.7 | 19.3 | 0.00 | 0.15 | 0.05 | 82 | 1021.3 |
| 20260905123704 | 15 | 201 | 8.0 | 14.5 | 0.00 | 0.15 | 0.05 | 81 | 1021.2 |
| 20260905123204 | 15 | 195 | 8.0 | 14.5 | 0.00 | 0.15 | 0.05 | 81 | 1021.2 |
| 20260905122704 | 15 | 205 | 9.7 | 16.1 | 0.00 | 0.15 | 0.05 | 81 | 1021.2 |
| 20260905122204 | 15 | 230 | 9.7 | 16.1 | 0.00 | 0.15 | 0.05 | 82 | 1021.3 |
| 20260905120704 | 15 | 206 | 6.4 | 16.1 | 0.00 | 0.23 | 0.05 | 83 | 1021.3 |
| 20260905120204 | 15 | 232 | 9.7 | 14.5 | 0.00 | 0.28 | 0.05 | 83 | 1021.3 |
| 20260905115704 | 15 | 236 | 4.8 | 8.0 | 0.00 | 0.28 | 0.05 | 84 | 1021.2 |
| 20260905115204 | 14 | 235 | 3.2 | 4.8 | 0.00 | 0.28 | 0.05 | 84 | 1021.3 |
| 20260905114703 | 13 | 222 | 4.8 | 12.9 | 0.00 | 0.33 | 0.05 | 83 | 1021.3 |
| 20260905114204 | 13 | 217 | 3.2 | 8.0 | 0.00 | 0.33 | 0.05 | 83 | 1021.4 |
| 20260905113704 | 13 | 232 | 4.8 | 12.9 | 0.00 | 0.33 | 0.05 | 83 | 1021.4 |
| 20260905113205 | 14 | 201 | 9.7 | 16.1 | 0.00 | 0.33 | 0.05 | 83 | 1021.3 |
| 20260905112704 | 14 | 192 | 6.4 | 9.7 | 0.00 | 0.33 | 0.05 | 84 | 1021.4 |
| 20260905112204 | 14 | 209 | 4.8 | 9.7 | 0.00 | 0.33 | 0.05 | 84 | 1021.3 |
| 20260905111704 | 14 | 231 | 6.4 | 12.9 | 0.00 | 0.33 | 0.05 | 85 | 1021.2 |
| 20260905111204 | 14 | 220 | 8.0 | 14.5 | 0.00 | 0.33 | 0.05 | 85 | 1021.2 |
| 20260905110704 | 14 | 196 | 8.0 | 14.5 | 0.00 | 0.33 | 0.05 | 84 | 1021.2 |
| 20260905110204 | 14 | 202 | 9.7 | 14.5 | 0.00 | 0.33 | 0.05 | 85 | 1021.0 |
| 20260905105704 | 14 | 196 | 8.0 | 14.5 | 0.00 | 0.33 | 0.05 | 85 | 1021.0 |
| 20260905105203 | 14 | 188 | 8.0 | 14.5 | 0.00 | 0.33 | 0.05 | 86 | 1020.9 |
| 20260905104204 | 14 | 202 | 9.7 | 19.3 | 0.00 | 0.33 | 0.05 | 86 | 1021.3 |
| 20260905103704 | 14 | 196 | 8.0 | 14.5 | 0.00 | 0.33 | 0.05 | 87 | 1021.2 |
| 20260905102704 | 14 | 207 | 8.0 | 16.1 | 0.00 | 0.33 | 0.05 | 87 | 1021.2 |
| 20260905102204 | 14 | 219 | 8.0 | 14.5 | 0.00 | 0.33 | 0.05 | 87 | 1021.2 |
| 20260905101704 | 14 | 245 | 8.0 | 14.5 | 0.00 | 0.33 | 0.05 | 87 | 1021.1 |
| 20260905101204 | 14 | 213 | 4.8 | 12.9 | 0.00 | 0.33 | 0.05 | 88 | 1021.0 |
| 20260905100703 | 13 | 248 | 8.0 | 11.3 | 0.00 | 0.33 | 0.05 | 88 | 1021.1 |
| 20260905100204 | 13 | 218 | 4.8 | 9.7 | 0.00 | 0.33 | 0.05 | 89 | 1020.8 |
| 20260905095704 | 13 | 203 | 8.0 | 12.9 | 0.00 | 0.33 | 0.05 | 90 | 1020.9 |
| 20260905095203 | 13 | 220 | 9.7 | 12.9 | 0.00 | 0.33 | 0.05 | 91 | 1020.9 |
| 20260905094704 | 13 | 203 | 9.7 | 12.9 | 0.00 | 0.33 | 0.05 | 91 | 1020.9 |
| 20260905094203 | 13 | 227 | 8.0 | 12.9 | 0.00 | 0.33 | 0.05 | 92 | 1021.0 |
| 20260905093703 | 13 | 215 | 6.4 | 11.3 | 0.00 | 0.33 | 0.05 | 93 | 1020.9 |
| 20260905093204 | 13 | 233 | 4.8 | 9.7 | 0.00 | 0.33 | 0.05 | 93 | 1020.9 |
| 20260905092704 | 13 | 220 | 6.4 | 9.7 | 0.00 | 0.33 | 0.05 | 93 | 1021.0 |
| 20260905092204 | 13 | 235 | 6.4 | 11.3 | 0.00 | 0.33 | 0.05 | 94 | 1021.0 |
| 20260905091204 | 12 | 215 | 4.8 | 8.0 | 0.00 | 0.33 | 0.05 | 94 | 1021.0 |
| 20260905090204 | 12 | 228 | 6.4 | 12.9 | 0.00 | 0.33 | 0.05 | 94 | 1020.7 |
| 20260905085704 | 12 | 208 | 6.4 | 9.7 | 0.00 | 0.33 | 0.05 | 94 | 1020.6 |
| 20260905085204 | 12 | 201 | 4.8 | 8.0 | 0.00 | 0.33 | 0.05 | 95 | 1020.7 |
| 20260905084204 | 12 | 226 | 6.4 | 11.3 | 0.00 | 0.33 | 0.05 | 95 | 1020.8 |
| 20260905083703 | 12 | 190 | 6.4 | 11.3 | 0.00 | 0.33 | 0.05 | 95 | 1020.7 |
| 20260905083204 | 12 | 209 | 6.4 | 11.3 | 0.00 | 0.33 | 0.05 | 95 | 1020.8 |
| 20260905082704 | 12 | 200 | 8.0 | 12.9 | 0.00 | 0.33 | 0.05 | 95 | 1020.6 |
| 20260905082204 | 12 | 231 | 9.7 | 16.1 | 0.00 | 0.33 | 0.05 | 95 | 1020.7 |
| 20260905081704 | 12 | 208 | 6.4 | 14.5 | 0.00 | 0.33 | 0.05 | 95 | 1020.6 |
| 20260905081204 | 12 | 205 | 8.0 | 12.9 | 0.00 | 0.33 | 0.05 | 95 | 1020.7 |
| 20260905080704 | 12 | 206 | 4.8 | 9.7 | 0.00 | 0.33 | 0.05 | 95 | 1020.5 |
| 20260905080204 | 12 | 209 | 4.8 | 8.0 | 0.00 | 0.33 | 0.05 | 95 | 1020.6 |
| 20260905075205 | 11 | 242 | 6.4 | 11.3 | 0.00 | 0.33 | 0.05 | 95 | 1020.4 |
| 20260905074704 | 11 | 228 | 3.2 | 11.3 | 0.00 | 0.33 | 0.05 | 95 | 1020.5 |
| 20260905074203 | 11 | 219 | 4.8 | 11.3 | 0.00 | 0.33 | 0.05 | 95 | 1020.3 |
| 20260905073704 | 11 | 221 | 9.7 | 19.3 | 0.00 | 0.33 | 0.05 | 95 | 1020.3 |
| 20260905072704 | 11 | 219 | 6.4 | 9.7 | 0.00 | 0.33 | 0.05 | 95 | 1020.1 |
| 20260905072204 | 11 | 223 | 4.8 | 9.7 | 0.00 | 0.33 | 0.05 | 95 | 1020.1 |
| 20260905071704 | 11 | 200 | 4.8 | 11.3 | 0.00 | 0.33 | 0.05 | 95 | 1020.0 |
| 20260905071204 | 11 | 224 | 4.8 | 9.7 | 0.00 | 0.33 | 0.05 | 95 | 1019.9 |
| 20260905070704 | 11 | 239 | 4.8 | 11.3 | 0.00 | 0.33 | 0.05 | 95 | 1019.9 |
| 20260905065704 | 11 | 220 | 4.8 | 8.0 | 0.00 | 0.33 | 0.05 | 95 | 1019.8 |
| 20260905064204 | 11 | 212 | 4.8 | 8.0 | 0.00 | 0.33 | 0.05 | 95 | 1019.7 |
| 20260905063704 | 11 | 234 | 3.2 | 4.8 | 0.00 | 0.33 | 0.05 | 95 | 1019.7 |
| 20260905063204 | 11 | 249 | 3.2 | 9.7 | 0.00 | 0.33 | 0.05 | 95 | 1019.6 |
| 20260905062703 | 11 | 218 | 4.8 | 9.7 | 0.00 | 0.33 | 0.05 | 95 | 1019.6 |
| 20260905062204 | 11 | 200 | 4.8 | 8.0 | 0.00 | 0.33 | 0.05 | 95 | 1019.5 |
| 20260905061704 | 11 | 222 | 3.2 | 9.7 | 0.00 | 0.33 | 0.05 | 95 | 1019.6 |
| 20260905053204 | 10 | 201 | 4.8 | 8.0 | 0.00 | 0.33 | 0.05 | 95 | 1019.6 |
| 20260905052703 | 10 | 216 | 3.2 | 4.8 | 0.00 | 0.33 | 0.05 | 95 | 1019.6 |
| 20260905051704 | 11 | 186 | 3.2 | 4.8 | 0.00 | 0.33 | 0.05 | 95 | 1019.3 |
| 20260905051204 | 11 | 178 | 1.6 | 4.8 | 0.00 | 0.33 | 0.05 | 96 | 1019.3 |
| 20260905050704 | 11 | 216 | 3.2 | 4.8 | 0.00 | 0.33 | 0.05 | 96 | 1019.4 |
| 20260905050204 | 11 | 239 | 4.8 | 9.7 | 0.00 | 0.33 | 0.05 | 96 | 1019.4 |
| 20260905045704 | 11 | 256 | 4.8 | 9.7 | 0.00 | 0.33 | 0.05 | 96 | 1019.3 |
| 20260905045204 | 11 | 252 | 3.2 | 4.8 | 0.00 | 0.33 | 0.05 | 96 | 1019.3 |
| 20260905044704 | 11 | 219 | 3.2 | 8.0 | 0.00 | 0.33 | 0.05 | 95 | 1019.2 |
| 20260905044204 | 11 | 209 | 4.8 | 9.7 | 0.00 | 0.33 | 0.05 | 95 | 1019.3 |
| 20260905043704 | 11 | 209 | 3.2 | 8.0 | 0.00 | 0.33 | 0.05 | 95 | 1019.2 |
| 20260905043204 | 11 | 213 | 3.2 | 4.8 | 0.00 | 0.33 | 0.05 | 95 | 1019.2 |
| 20260905042704 | 11 | 216 | 3.2 | 4.8 | 0.00 | 0.33 | 0.05 | 95 | 1019.3 |
| 20260905042204 | 11 | 219 | 3.2 | 4.8 | 0.00 | 0.33 | 0.05 | 95 | 1019.4 |
| 20260905041204 | 11 | 261 | 4.8 | 11.3 | 0.03 | 0.33 | 0.05 | 95 | 1019.3 |
| 20260905040703 | 11 | 238 | 4.8 | 9.7 | 0.03 | 0.33 | 0.05 | 95 | 1019.3 |
| 20260905040204 | 11 | 252 | 4.8 | 12.9 | 0.03 | 0.33 | 0.05 | 95 | 1019.3 |
| 20260905035704 | 11 | 245 | 8.0 | 12.9 | 0.03 | 0.33 | 0.05 | 95 | 1019.4 |
| 20260905035205 | 11 | 231 | 3.2 | 4.8 | 0.03 | 0.33 | 0.05 | 95 | 1019.3 |
| 20260905034704 | 11 | 250 | 1.6 | 3.2 | 0.03 | 0.33 | 0.05 | 95 | 1019.1 |
| 20260905034204 | 11 | 249 | 3.2 | 8.0 | 0.03 | 0.33 | 0.05 | 95 | 1019.1 |
| 20260905033704 | 11 | 258 | 4.8 | 4.8 | 0.03 | 0.33 | 0.05 | 95 | 1019.1 |
| 20260905033205 | 11 | 247 | 4.8 | 11.3 | 0.03 | 0.33 | 0.05 | 95 | 1019.1 |
| 20260905032704 | 11 | 274 | 4.8 | 11.3 | 0.03 | 0.33 | 0.05 | 95 | 1019.2 |
| 20260905032204 | 11 | 257 | 4.8 | 14.5 | 0.03 | 0.33 | 0.05 | 95 | 1019.2 |
| 20260905031704 | 11 | 258 | 8.0 | 12.9 | 0.00 | 0.33 | 0.05 | 95 | 1019.3 |
| 20260905030704 | 11 | 266 | 4.8 | 9.7 | 0.00 | 0.33 | 0.05 | 95 | 1019.2 |
| 20260905030204 | 11 | 259 | 3.2 | 8.0 | 0.00 | 0.33 | 0.05 | 95 | 1019.0 |
| 20260905025204 | 11 | 246 | 4.8 | 8.0 | 0.00 | 0.33 | 0.05 | 95 | 1019.1 |
| 20260905024703 | 11 | 241 | 4.8 | 8.0 | 0.00 | 0.33 | 0.05 | 95 | 1019.0 |
| 20260905024204 | 11 | 241 | 4.8 | 8.0 | 0.00 | 0.33 | 0.05 | 95 | 1019.1 |
| 20260905023703 | 11 | 239 | 3.2 | 4.8 | 0.00 | 0.33 | 0.05 | 95 | 1018.9 |
| 20260905023204 | 11 | 216 | 3.2 | 4.8 | 0.03 | 0.33 | 0.05 | 95 | 1018.9 |
| 20260905022704 | 11 | 234 | 3.2 | 11.3 | 0.03 | 0.33 | 0.05 | 95 | 1018.9 |
| 20260905022204 | 11 | 272 | 4.8 | 12.9 | 0.03 | 0.33 | 0.05 | 95 | 1018.8 |
| 20260905021704 | 11 | 217 | 3.2 | 4.8 | 0.03 | 0.33 | 0.05 | 95 | 1018.7 |
| 20260905021204 | 11 | 227 | 4.8 | 4.8 | 0.03 | 0.33 | 0.05 | 95 | 1018.7 |
| 20260905020203 | 11 | 246 | 4.8 | 9.7 | 0.05 | 0.33 | 0.05 | 95 | 1018.7 |
| 20260905015704 | 11 | 251 | 4.8 | 11.3 | 0.05 | 0.33 | 0.05 | 95 | 1018.7 |
| 20260905015204 | 11 | 253 | 4.8 | 8.0 | 0.05 | 0.33 | 0.05 | 95 | 1018.6 |
| 20260905014704 | 11 | 252 | 3.2 | 9.7 | 0.05 | 0.33 | 0.05 | 94 | 1018.6 |
| 20260905014204 | 11 | 260 | 4.8 | 11.3 | 0.05 | 0.33 | 0.05 | 94 | 1018.6 |
| 20260905013704 | 11 | 251 | 4.8 | 9.7 | 0.05 | 0.33 | 0.05 | 94 | 1018.6 |
| 20260905013205 | 11 | 248 | 6.4 | 12.9 | 0.03 | 0.33 | 0.03 | 94 | 1018.5 |
| 20260905012705 | 11 | 239 | 4.8 | 11.3 | 0.03 | 0.33 | 0.03 | 94 | 1018.5 |
| 20260905012204 | 11 | 249 | 4.8 | 11.3 | 0.03 | 0.33 | 0.03 | 94 | 1018.5 |
| 20260905011704 | 11 | 256 | 4.8 | 11.3 | 0.03 | 0.33 | 0.03 | 94 | 1018.3 |
| 20260905011204 | 11 | 247 | 8.0 | 14.5 | 0.03 | 0.33 | 0.03 | 94 | 1018.4 |
| 20260905010703 | 11 | 247 | 11.3 | 16.1 | 0.03 | 0.33 | 0.03 | 94 | 1018.5 |
| 20260905005703 | 11 | 241 | 4.8 | 11.3 | 0.00 | 0.30 | 0.00 | 94 | 1018.3 |
| 20260905005203 | 11 | 225 | 3.2 | 4.8 | 0.00 | 0.30 | 0.00 | 94 | 1018.3 |
| 20260905004703 | 11 | 253 | 4.8 | 12.9 | 0.00 | 0.30 | 0.00 | 94 | 1018.2 |
| 20260905004203 | 11 | 250 | 4.8 | 8.0 | 0.00 | 0.30 | 0.00 | 94 | 1018.1 |
| 20260905003703 | 11 | 258 | 4.8 | 4.8 | 0.00 | 0.30 | 0.00 | 93 | 1018.1 |
| 20260905003204 | 11 | 248 | 4.8 | 4.8 | 0.00 | 0.30 | 0.00 | 93 | 1018.1 |
| 20260905002704 | 11 | 252 | 4.8 | 9.7 | 0.00 | 0.30 | 0.00 | 93 | 1018.1 |
| 20260905002204 | 11 | 250 | 3.2 | 4.8 | 0.00 | 0.30 | 0.00 | 93 | 1018.1 |
| 20260905001704 | 11 | 246 | 3.2 | 4.8 | 0.00 | 0.30 | 0.00 | 93 | 1018.0 |
| 20260905001203 | 11 | 246 | 1.6 | 4.8 | 0.00 | 0.30 | 0.00 | 93 | 1018.1 |
| 20260905000204 | 11 | 231 | 1.6 | 4.8 | 0.00 | 0.30 | 0.00 | 93 | 1018.0 |
| 20260904235705 | 11 | 242 | 1.6 | 4.8 | 0.00 | 0.30 | 0.00 | 93 | 1018.0 |
| 20260904235204 | 11 | 248 | 4.8 | 4.8 | 0.00 | 0.30 | 0.00 | 93 | 1018.1 |
| 20260904234704 | 11 | 252 | 4.8 | 9.7 | 0.00 | 0.30 | 0.00 | 93 | 1018.1 |
| 20260904234204 | 11 | 231 | 4.8 | 4.8 | 0.00 | 0.30 | 0.00 | 93 | 1018.1 |
| 20260904233704 | 11 | 214 | 6.4 | 8.0 | 0.00 | 0.30 | 0.00 | 93 | 1018.1 |
| 20260904233203 | 11 | 212 | 3.2 | 4.8 | 0.00 | 0.30 | 0.00 | 93 | 1018.0 |
| 20260904232704 | 11 | 239 | 3.2 | 9.7 | 0.00 | 0.30 | 0.00 | 93 | 1018.1 |
| 20260904232204 | 11 | 245 | 3.2 | 4.8 | 0.00 | 0.30 | 0.00 | 93 | 1018.0 |
| 20260904231703 | 11 | 259 | 4.8 | 11.3 | 0.00 | 0.30 | 0.00 | 93 | 1017.9 |
| 20260904231204 | 11 | 242 | 8.0 | 12.9 | 0.00 | 0.30 | 0.00 | 93 | 1017.8 |
| 20260904230703 | 12 | 252 | 8.0 | 19.3 | 0.00 | 0.30 | 0.00 | 93 | 1017.8 |
| 20260904230204 | 12 | 255 | 9.7 | 19.3 | 0.00 | 0.30 | 0.00 | 93 | 1017.7 |
| 20260904225704 | 12 | 268 | 12.9 | 20.9 | 0.00 | 0.30 | 0.30 | 93 | 1017.7 |
| 20260904224704 | 12 | 248 | 9.7 | 14.5 | 0.00 | 0.30 | 0.30 | 93 | 1017.6 |
| 20260904223704 | 12 | 248 | 4.8 | 9.7 | 0.00 | 0.30 | 0.30 | 93 | 1017.6 |
| 20260904223203 | 12 | 256 | 9.7 | 22.5 | 0.00 | 0.30 | 0.30 | 93 | 1017.5 |
| 20260904221704 | 12 | 258 | 14.5 | 19.3 | 0.00 | 0.30 | 0.30 | 93 | 1017.6 |
| 20260904221204 | 11 | 265 | 8.0 | 19.3 | 0.00 | 0.30 | 0.30 | 93 | 1017.6 |
| 20260904220704 | 11 | 251 | 9.7 | 16.1 | 0.00 | 0.30 | 0.30 | 93 | 1017.6 |
| 20260904220204 | 12 | 262 | 9.7 | 19.3 | 0.00 | 0.30 | 0.30 | 93 | 1017.5 |
| 20260904215704 | 12 | 261 | 14.5 | 20.9 | 0.00 | 0.30 | 0.30 | 93 | 1017.5 |